Location: Cheyres
(46.8153°N, 6.7877°E)
Time: 22:20:08
(UTC+00:00)

PicSat - Pass Details

Date: 06 July 2022
Orbit: 446 x 455 km, 97.4° (Epoch: 13 August)

Event Time Altitude Azimuth Distance (km) Brightness Sun altitude
Exits shadow 23:04:03 11° 256° (WSW) 1,566 ? -20.2°
Maximum altitude 23:04:52 11° 270° (W) 1,527 ? -20.2°
Drops below altitude 10° 23:06:04 10° 291° (WNW) 1,617 ? -20.2°
Sets 23:09:25 0° 326° (NW) 2,503 ? -20.3°
